Saint Bonnet de Bellac- Haute Vienne - France
Donnes mto: samedi, 02/06/2012
Date Horaire Temp. E. Hum. E. P.atmo. Pluie Vent Direction Direction Ensoleilleme Solaire P. de rose Temp au vent Rafales
02/06/2012 00:00 18,0 C 76 % 1014,1 hPa 0,0 mm 0,0 km/h (0 Bft) NE 45 0 min 0 W/m 13,7 C 18,0 C 0,0 km/h (0 Bft)
02/06/2012 00:10 17,9 C 77 % 1014,1 hPa 0,0 mm 3,2 km/h (1 Bft) NE 45 0 min 0 W/m 13,8 C 17,9 C 3,2 km/h (1 Bft)
02/06/2012 00:20 17,9 C 77 % 1014,2 hPa 0,0 mm 0,0 km/h (0 Bft) NE 45 0 min 0 W/m 13,8 C 17,9 C 3,2 km/h (1 Bft)
02/06/2012 00:30 17,7 C 77 % 1014,3 hPa 0,0 mm 0,0 km/h (0 Bft) NE 45 0 min 0 W/m 13,6 C 17,7 C 0,0 km/h (0 Bft)
02/06/2012 00:40 17,5 C 77 % 1014,2 hPa 0,0 mm 0,0 km/h (0 Bft) NE 45 0 min 0 W/m 13,4 C 17,5 C 0,0 km/h (0 Bft)
02/06/2012 00:50 17,3 C 77 % 1014,2 hPa 0,0 mm 0,4 km/h (0 Bft) NE 45 0 min 0 W/m 13,2 C 17,3 C 0,4 km/h (0 Bft)
02/06/2012 01:00 17,0 C 78 % 1014,0 hPa 0,0 mm 0,0 km/h (0 Bft) NE 45 0 min 0 W/m 13,1 C 17,0 C 0,0 km/h (0 Bft)
02/06/2012 01:10 16,8 C 78 % 1014,0 hPa 0,0 mm 0,0 km/h (0 Bft) NE 45 0 min 0 W/m 12,9 C 16,8 C 0,0 km/h (0 Bft)
02/06/2012 01:20 16,4 C 79 % 1013,9 hPa 0,0 mm 0,0 km/h (0 Bft) NE 45 0 min 0 W/m 12,7 C 16,4 C 0,0 km/h (0 Bft)
02/06/2012 01:30 16,3 C 80 % 1013,7 hPa 0,0 mm 1,8 km/h (1 Bft) N-NE 22 0 min 0 W/m 12,8 C 16,3 C 4,3 km/h (1 Bft)
02/06/2012 01:40 16,2 C 81 % 1013,6 hPa 0,0 mm 0,0 km/h (0 Bft) N-NE 22 0 min 0 W/m 12,9 C 16,2 C 3,2 km/h (1 Bft)
02/06/2012 01:50 16,1 C 81 % 1013,6 hPa 0,0 mm 0,0 km/h (0 Bft) N-NE 22 0 min 0 W/m 12,8 C 16,1 C 0,0 km/h (0 Bft)
02/06/2012 02:00 15,9 C 81 % 1013,6 hPa 0,0 mm 1,8 km/h (1 Bft) N-NE 22 0 min 0 W/m 12,6 C 15,9 C 3,6 km/h (1 Bft)
02/06/2012 02:10 15,8 C 81 % 1013,5 hPa 0,0 mm 0,0 km/h (0 Bft) N-NE 22 0 min 0 W/m 12,5 C 15,8 C 0,0 km/h (0 Bft)
02/06/2012 02:20 15,6 C 82 % 1013,3 hPa 0,0 mm 0,4 km/h (0 Bft) N-NE 22 0 min 0 W/m 12,5 C 15,6 C 3,2 km/h (1 Bft)
02/06/2012 02:30 15,4 C 82 % 1013,1 hPa 0,0 mm 0,0 km/h (0 Bft) N-NE 22 0 min 0 W/m 12,3 C 15,4 C 0,0 km/h (0 Bft)
02/06/2012 02:40 15,3 C 83 % 1013,1 hPa 0,0 mm 0,0 km/h (0 Bft) N-NE 22 0 min 0 W/m 12,4 C 15,3 C 0,0 km/h (0 Bft)
02/06/2012 02:50 15,1 C 83 % 1013,0 hPa 0,0 mm 0,0 km/h (0 Bft) N-NE 22 0 min 0 W/m 12,2 C 15,1 C 0,0 km/h (0 Bft)
02/06/2012 03:02 15,1 C 84 % 1012,9 hPa 0,0 mm 0,0 km/h (0 Bft) N-NE 22 0 min 0 W/m 12,4 C 15,1 C 0,0 km/h (0 Bft)
02/06/2012 03:10 14,9 C 84 % 1012,7 hPa 0,0 mm 2,5 km/h (1 Bft) NE 45 0 min 0 W/m 12,2 C 14,9 C 6,8 km/h (2 Bft)
02/06/2012 03:20 14,8 C 84 % 1012,6 hPa 0,0 mm 1,1 km/h (1 Bft) N-NE 22 0 min 0 W/m 12,1 C 14,8 C 3,2 km/h (1 Bft)
02/06/2012 03:30 14,8 C 85 % 1012,5 hPa 0,0 mm 0,0 km/h (0 Bft) N-NE 22 0 min 0 W/m 12,3 C 14,8 C 0,0 km/h (0 Bft)
02/06/2012 03:40 14,6 C 85 % 1012,4 hPa 0,0 mm 0,0 km/h (0 Bft) N-NE 22 0 min 0 W/m 12,1 C 14,6 C 0,0 km/h (0 Bft)
02/06/2012 03:50 14,5 C 85 % 1012,5 hPa 0,0 mm 0,4 km/h (0 Bft) N-NE 22 0 min 0 W/m 12,0 C 14,5 C 0,4 km/h (0 Bft)
02/06/2012 04:00 14,4 C 85 % 1012,6 hPa 0,0 mm 0,0 km/h (0 Bft) N-NE 22 0 min 0 W/m 11,9 C 14,4 C 0,0 km/h (0 Bft)
02/06/2012 04:10 14,2 C 85 % 1012,6 hPa 0,0 mm 0,0 km/h (0 Bft) N-NE 22 0 min 0 W/m 11,7 C 14,2 C 0,0 km/h (0 Bft)
02/06/2012 04:20 14,0 C 85 % 1012,4 hPa 0,0 mm 0,4 km/h (0 Bft) N-NE 22 0 min 0 W/m 11,5 C 14,0 C 0,4 km/h (0 Bft)
02/06/2012 04:30 13,9 C 86 % 1012,3 hPa 0,0 mm 0,0 km/h (0 Bft) N-NE 22 0 min 0 W/m 11,6 C 13,9 C 0,0 km/h (0 Bft)
02/06/2012 04:40 13,8 C 86 % 1012,0 hPa 0,0 mm 0,0 km/h (0 Bft) N-NE 22 0 min 0 W/m 11,5 C 13,8 C 0,0 km/h (0 Bft)
02/06/2012 04:50 13,7 C 86 % 1012,0 hPa 0,0 mm 0,0 km/h (0 Bft) N-NE 22 0 min 0 W/m 11,4 C 13,7 C 0,0 km/h (0 Bft)
02/06/2012 05:00 13,6 C 87 % 1011,9 hPa 0,0 mm 0,0 km/h (0 Bft) N-NE 22 0 min 0 W/m 11,5 C 13,6 C 0,0 km/h (0 Bft)
02/06/2012 05:10 13,6 C 87 % 1011,7 hPa 0,0 mm 0,0 km/h (0 Bft) N-NE 22 0 min 0 W/m 11,5 C 13,6 C 0,0 km/h (0 Bft)
02/06/2012 05:20 13,6 C 87 % 1011,7 hPa 0,0 mm 0,0 km/h (0 Bft) N-NE 22 0 min 0 W/m 11,5 C 13,6 C 0,0 km/h (0 Bft)
02/06/2012 05:30 13,5 C 87 % 1011,5 hPa 0,0 mm 0,0 km/h (0 Bft) N-NE 22 0 min 0 W/m 11,4 C 13,5 C 0,0 km/h (0 Bft)
02/06/2012 05:40 13,5 C 88 % 1011,6 hPa 0,0 mm 0,0 km/h (0 Bft) N-NE 22 0 min 0 W/m 11,6 C 13,5 C 0,0 km/h (0 Bft)
02/06/2012 05:50 13,4 C 88 % 1011,6 hPa 0,0 mm 0,0 km/h (0 Bft) N-NE 22 0 min 0 W/m 11,5 C 13,4 C 0,0 km/h (0 Bft)
02/06/2012 06:00 13,4 C 88 % 1011,5 hPa 0,0 mm 0,0 km/h (0 Bft) N-NE 22 0 min 0 W/m 11,5 C 13,4 C 0,0 km/h (0 Bft)
02/06/2012 06:10 13,3 C 88 % 1011,6 hPa 0,0 mm 0,0 km/h (0 Bft) N-NE 22 0 min 0 W/m 11,4 C 13,3 C 0,0 km/h (0 Bft)
02/06/2012 06:20 13,2 C 88 % 1011,5 hPa 0,0 mm 0,0 km/h (0 Bft) N-NE 22 0 min 0 W/m 11,3 C 13,2 C 0,0 km/h (0 Bft)
02/06/2012 06:30 13,2 C 88 % 1011,4 hPa 0,0 mm 0,0 km/h (0 Bft) N-NE 22 0 min 0 W/m 11,3 C 13,2 C 0,0 km/h (0 Bft)
02/06/2012 06:40 13,2 C 88 % 1011,4 hPa 0,0 mm 1,4 km/h (1 Bft) E-NE 67 0 min 0 W/m 11,3 C 13,2 C 4,0 km/h (1 Bft)
02/06/2012 06:50 13,3 C 89 % 1011,5 hPa 0,0 mm 0,0 km/h (0 Bft) E-NE 67 0 min 0 W/m 11,5 C 13,3 C 0,0 km/h (0 Bft)
02/06/2012 07:00 13,3 C 89 % 1011,4 hPa 0,0 mm 0,0 km/h (0 Bft) E-NE 67 0 min 0 W/m 11,5 C 13,3 C 0,0 km/h (0 Bft)
02/06/2012 07:10 13,4 C 89 % 1011,3 hPa 0,0 mm 0,0 km/h (0 Bft) E 90 0 min 0 W/m 11,6 C 13,4 C 2,9 km/h (1 Bft)
02/06/2012 07:20 13,5 C 89 % 1011,4 hPa 0,0 mm 1,4 km/h (1 Bft) E-SE 112 0 min 0 W/m 11,7 C 13,5 C 3,6 km/h (1 Bft)
02/06/2012 07:30 13,9 C 89 % 1011,4 hPa 0,0 mm 1,4 km/h (1 Bft) E 90 0 min 0 W/m 12,1 C 13,9 C 4,0 km/h (1 Bft)
02/06/2012 07:40 14,4 C 90 % 1011,4 hPa 0,0 mm 0,0 km/h (0 Bft) E-SE 112 0 min 0 W/m 12,8 C 14,4 C 0,0 km/h (0 Bft)
02/06/2012 07:50 14,8 C 89 % 1011,3 hPa 0,0 mm 0,0 km/h (0 Bft) E-SE 112 0 min 0 W/m 13,0 C 14,8 C 0,0 km/h (0 Bft)
02/06/2012 08:00 15,3 C 90 % 1011,2 hPa 0,0 mm 0,0 km/h (0 Bft) E-SE 112 0 min 0 W/m 13,7 C 15,3 C 0,0 km/h (0 Bft)
02/06/2012 08:10 15,8 C 89 % 1011,1 hPa 0,0 mm 0,0 km/h (0 Bft) E 90 0 min 0 W/m 14,0 C 15,8 C 0,0 km/h (0 Bft)
02/06/2012 08:20 16,5 C 88 % 1011,0 hPa 0,0 mm 1,1 km/h (1 Bft) E 90 0 min 0 W/m 14,5 C 16,5 C 1,1 km/h (1 Bft)
02/06/2012 08:30 17,1 C 87 % 1011,0 hPa 0,0 mm 0,0 km/h (0 Bft) NE 45 0 min 0 W/m 14,9 C 17,1 C 0,0 km/h (0 Bft)
02/06/2012 08:40 17,8 C 85 % 1011,1 hPa 0,0 mm 0,0 km/h (0 Bft) E-SE 112 0 min 0 W/m 15,2 C 17,8 C 0,0 km/h (0 Bft)
02/06/2012 08:50 18,6 C 83 % 1011,1 hPa 0,0 mm 3,2 km/h (1 Bft) SE 135 0 min 0 W/m 15,7 C 18,6 C 5,8 km/h (2 Bft)
02/06/2012 09:00 19,4 C 80 % 1011,2 hPa 0,0 mm 1,8 km/h (1 Bft) SE 135 0 min 0 W/m 15,9 C 19,4 C 4,3 km/h (1 Bft)
02/06/2012 09:10 20,2 C 80 % 1011,4 hPa 0,0 mm 0,0 km/h (0 Bft) SE 135 0 min 0 W/m 16,6 C 20,2 C 0,0 km/h (0 Bft)
02/06/2012 09:20 21,2 C 79 % 1011,3 hPa 0,0 mm 0,0 km/h (0 Bft) E-SE 112 0 min 0 W/m 17,4 C 21,2 C 0,0 km/h (0 Bft)
02/06/2012 09:30 22,2 C 78 % 1011,2 hPa 0,0 mm 0,0 km/h (0 Bft) E-SE 112 0 min 0 W/m 18,2 C 22,2 C 0,0 km/h (0 Bft)
02/06/2012 09:40 22,9 C 76 % 1011,2 hPa 0,0 mm 0,0 km/h (0 Bft) E-SE 112 0 min 0 W/m 18,4 C 22,9 C 2,9 km/h (1 Bft)
02/06/2012 09:50 23,4 C 75 % 1011,3 hPa 0,0 mm 0,4 km/h (0 Bft) E 90 0 min 0 W/m 18,7 C 23,4 C 3,6 km/h (1 Bft)
02/06/2012 10:00 23,9 C 74 % 1011,4 hPa 0,0 mm 0,0 km/h (0 Bft) E 90 0 min 0 W/m 19,0 C 23,9 C 0,0 km/h (0 Bft)
02/06/2012 10:10 24,5 C 73 % 1011,3 hPa 0,0 mm 0,0 km/h (0 Bft) E 90 0 min 0 W/m 19,3 C 24,5 C 0,0 km/h (0 Bft)
02/06/2012 10:20 25,3 C 72 % 1011,2 hPa 0,0 mm 0,0 km/h (0 Bft) E 90 0 min 0 W/m 19,9 C 25,3 C 0,0 km/h (0 Bft)
02/06/2012 10:30 26,3 C 67 % 1011,1 hPa 0,0 mm 0,0 km/h (0 Bft) S-SO 202 0 min 0 W/m 19,7 C 26,3 C 0,0 km/h (0 Bft)
02/06/2012 10:40 26,7 C 62 % 1011,0 hPa 0,0 mm 2,2 km/h (1 Bft) S-SO 202 0 min 0 W/m 18,8 C 26,7 C 4,3 km/h (1 Bft)
02/06/2012 10:50 26,8 C 59 % 1011,0 hPa 0,0 mm 1,4 km/h (1 Bft) S-SO 202 0 min 0 W/m 18,1 C 26,8 C 1,4 km/h (1 Bft)
02/06/2012 11:00 26,8 C 60 % 1011,0 hPa 0,0 mm 0,0 km/h (0 Bft) S-SO 202 0 min 0 W/m 18,4 C 26,8 C 0,0 km/h (0 Bft)
02/06/2012 11:10 26,8 C 61 % 1010,9 hPa 0,0 mm 0,0 km/h (0 Bft) S-SO 202 0 min 0 W/m 18,6 C 26,8 C 0,0 km/h (0 Bft)
02/06/2012 11:20 27,3 C 61 % 1010,9 hPa 0,0 mm 0,0 km/h (0 Bft) S-SO 202 0 min 0 W/m 19,1 C 27,3 C 0,0 km/h (0 Bft)
02/06/2012 11:30 27,8 C 59 % 1010,8 hPa 0,0 mm 0,0 km/h (0 Bft) SE 135 0 min 0 W/m 19,0 C 27,8 C 3,2 km/h (1 Bft)
02/06/2012 11:40 28,4 C 59 % 1010,9 hPa 0,0 mm 0,4 km/h (0 Bft) E 90 0 min 0 W/m 19,6 C 28,4 C 0,4 km/h (0 Bft)
02/06/2012 11:50 28,8 C 58 % 1011,0 hPa 0,0 mm 0,7 km/h (0 Bft) S-SE 157 0 min 0 W/m 19,7 C 28,8 C 0,7 km/h (0 Bft)
02/06/2012 12:00 29,1 C 57 % 1010,8 hPa 0,0 mm 4,3 km/h (1 Bft) S-SE 157 0 min 0 W/m 19,7 C 29,1 C 7,9 km/h (2 Bft)
02/06/2012 12:10 29,4 C 55 % 1010,9 hPa 0,0 mm 1,8 km/h (1 Bft) S 180 0 min 0 W/m 19,4 C 29,4 C 4,0 km/h (1 Bft)
02/06/2012 12:20 29,3 C 55 % 1011,0 hPa 0,0 mm 2,5 km/h (1 Bft) SO 225 0 min 0 W/m 19,3 C 29,3 C 4,3 km/h (1 Bft)
02/06/2012 12:30 29,2 C 56 % 1011,0 hPa 0,0 mm 0,4 km/h (0 Bft) O-SO 247 0 min 0 W/m 19,5 C 29,2 C 4,0 km/h (1 Bft)
02/06/2012 12:40 29,5 C 53 % 1011,0 hPa 0,0 mm 4,7 km/h (1 Bft) S-SO 202 0 min 0 W/m 18,9 C 29,5 C 7,6 km/h (2 Bft)
02/06/2012 12:50 29,4 C 53 % 1010,9 hPa 0,0 mm 1,4 km/h (1 Bft) SO 225 0 min 0 W/m 18,8 C 29,4 C 3,6 km/h (1 Bft)
02/06/2012 13:00 29,3 C 55 % 1010,9 hPa 0,0 mm 4,3 km/h (1 Bft) S 180 0 min 0 W/m 19,3 C 29,3 C 7,6 km/h (2 Bft)
02/06/2012 13:10 29,0 C 56 % 1010,8 hPa 0,0 mm 5,0 km/h (1 Bft) SO 225 0 min 0 W/m 19,3 C 29,0 C 9,4 km/h (2 Bft)
02/06/2012 13:20 28,6 C 58 % 1010,8 hPa 0,0 mm 3,6 km/h (1 Bft) SO 225 0 min 0 W/m 19,5 C 28,6 C 8,6 km/h (2 Bft)
02/06/2012 13:30 28,3 C 57 % 1010,9 hPa 0,0 mm 2,9 km/h (1 Bft) S-SO 202 0 min 0 W/m 18,9 C 28,3 C 6,1 km/h (2 Bft)
02/06/2012 13:40 28,4 C 59 % 1010,8 hPa 0,0 mm 2,9 km/h (1 Bft) SO 225 0 min 0 W/m 19,6 C 28,4 C 5,8 km/h (2 Bft)
02/06/2012 13:50 28,2 C 58 % 1010,7 hPa 0,0 mm 1,1 km/h (1 Bft) SO 225 0 min 0 W/m 19,1 C 28,2 C 4,0 km/h (1 Bft)
02/06/2012 14:00 27,9 C 60 % 1010,7 hPa 0,0 mm 2,9 km/h (1 Bft) S 180 0 min 0 W/m 19,4 C 27,9 C 6,5 km/h (2 Bft)
02/06/2012 14:10 27,8 C 61 % 1010,6 hPa 0,0 mm 3,6 km/h (1 Bft) S-SO 202 0 min 0 W/m 19,6 C 27,8 C 6,1 km/h (2 Bft)
02/06/2012 14:20 27,7 C 62 % 1010,7 hPa 0,0 mm 0,4 km/h (0 Bft) O-SO 247 0 min 0 W/m 19,7 C 27,7 C 2,9 km/h (1 Bft)
02/06/2012 14:30 27,5 C 62 % 1010,7 hPa 0,0 mm 4,3 km/h (1 Bft) S-SO 202 0 min 0 W/m 19,6 C 27,5 C 6,5 km/h (2 Bft)
02/06/2012 14:40 27,0 C 63 % 1010,8 hPa 0,0 mm 4,3 km/h (1 Bft) O-SO 247 0 min 0 W/m 19,3 C 27,0 C 9,7 km/h (2 Bft)
02/06/2012 14:50 26,6 C 66 % 1010,8 hPa 0,0 mm 2,5 km/h (1 Bft) S-SO 202 0 min 0 W/m 19,7 C 26,6 C 3,6 km/h (1 Bft)
02/06/2012 15:00 26,3 C 66 % 1010,8 hPa 0,0 mm 5,8 km/h (2 Bft) SO 225 0 min 0 W/m 19,4 C 26,3 C 6,8 km/h (2 Bft)
02/06/2012 15:10 25,9 C 67 % 1010,8 hPa 0,0 mm 2,9 km/h (1 Bft) S-SO 202 0 min 0 W/m 19,3 C 25,9 C 4,3 km/h (1 Bft)
02/06/2012 15:20 25,9 C 68 % 1010,8 hPa 0,0 mm 2,2 km/h (1 Bft) SO 225 0 min 0 W/m 19,5 C 25,9 C 4,3 km/h (1 Bft)
02/06/2012 15:30 26,0 C 66 % 1010,7 hPa 0,0 mm 0,0 km/h (0 Bft) SO 225 0 min 0 W/m 19,1 C 26,0 C 0,0 km/h (0 Bft)
02/06/2012 15:40 26,3 C 65 % 1010,7 hPa 0,0 mm 1,1 km/h (1 Bft) SO 225 0 min 0 W/m 19,2 C 26,3 C 4,0 km/h (1 Bft)
02/06/2012 15:50 26,5 C 65 % 1010,6 hPa 0,0 mm 1,1 km/h (1 Bft) N 360 0 min 0 W/m 19,4 C 26,5 C 1,1 km/h (1 Bft)
02/06/2012 16:00 26,8 C 64 % 1010,6 hPa 0,0 mm 0,0 km/h (0 Bft) SO 225 0 min 0 W/m 19,4 C 26,8 C 0,0 km/h (0 Bft)
02/06/2012 16:10 27,1 C 62 % 1010,5 hPa 0,0 mm 1,1 km/h (1 Bft) SO 225 0 min 0 W/m 19,2 C 27,1 C 1,1 km/h (1 Bft)
02/06/2012 16:20 27,5 C 61 % 1010,4 hPa 0,0 mm 1,4 km/h (1 Bft) S-SO 202 0 min 0 W/m 19,3 C 27,5 C 3,2 km/h (1 Bft)
02/06/2012 16:30 28,1 C 60 % 1010,2 hPa 0,0 mm 0,0 km/h (0 Bft) E 90 0 min 0 W/m 19,6 C 28,1 C 0,0 km/h (0 Bft)
02/06/2012 16:40 28,6 C 59 % 1010,2 hPa 0,0 mm 1,8 km/h (1 Bft) S-SE 157 0 min 0 W/m 19,8 C 28,6 C 4,0 km/h (1 Bft)
02/06/2012 16:50 29,0 C 57 % 1010,0 hPa 0,0 mm 4,3 km/h (1 Bft) S-SE 157 0 min 0 W/m 19,6 C 29,0 C 7,2 km/h (2 Bft)
02/06/2012 17:00 29,3 C 57 % 1009,7 hPa 0,0 mm 1,4 km/h (1 Bft) E-NE 67 0 min 0 W/m 19,9 C 29,3 C 7,2 km/h (2 Bft)
02/06/2012 17:10 29,6 C 57 % 1009,6 hPa 0,0 mm 1,8 km/h (1 Bft) NE 45 0 min 0 W/m 20,2 C 29,6 C 6,1 km/h (2 Bft)
02/06/2012 17:20 29,6 C 56 % 1009,7 hPa 0,0 mm 1,8 km/h (1 Bft) E-NE 67 0 min 0 W/m 19,9 C 29,6 C 4,3 km/h (1 Bft)
02/06/2012 17:30 29,7 C 56 % 1009,8 hPa 0,0 mm 0,7 km/h (0 Bft) S-SO 202 0 min 0 W/m 20,0 C 29,7 C 3,6 km/h (1 Bft)
02/06/2012 17:40 29,8 C 54 % 1009,6 hPa 0,0 mm 2,2 km/h (1 Bft) SE 135 0 min 0 W/m 19,5 C 29,8 C 4,3 km/h (1 Bft)
02/06/2012 17:50 29,8 C 55 % 1009,6 hPa 0,0 mm 1,8 km/h (1 Bft) E-NE 67 0 min 0 W/m 19,8 C 29,8 C 4,3 km/h (1 Bft)
02/06/2012 18:00 29,8 C 56 % 1009,6 hPa 0,0 mm 1,8 km/h (1 Bft) N 360 0 min 0 W/m 20,1 C 29,8 C 1,8 km/h (1 Bft)
02/06/2012 18:10 29,5 C 55 % 1009,5 hPa 0,0 mm 0,0 km/h (0 Bft) S-SO 202 0 min 0 W/m 19,5 C 29,5 C 0,0 km/h (0 Bft)
02/06/2012 18:20 29,5 C 54 % 1009,5 hPa 0,0 mm 0,4 km/h (0 Bft) SO 225 0 min 0 W/m 19,2 C 29,5 C 3,6 km/h (1 Bft)
02/06/2012 18:30 29,3 C 56 % 1009,5 hPa 0,0 mm 2,5 km/h (1 Bft) SO 225 0 min 0 W/m 19,6 C 29,3 C 4,3 km/h (1 Bft)
02/06/2012 18:40 29,2 C 55 % 1009,4 hPa 0,0 mm 2,5 km/h (1 Bft) SO 225 0 min 0 W/m 19,2 C 29,2 C 3,6 km/h (1 Bft)
02/06/2012 18:50 29,0 C 55 % 1009,4 hPa 0,0 mm 0,0 km/h (0 Bft) SO 225 0 min 0 W/m 19,0 C 29,0 C 0,0 km/h (0 Bft)
02/06/2012 19:00 28,8 C 56 % 1009,3 hPa 0,0 mm 0,0 km/h (0 Bft) SO 225 0 min 0 W/m 19,1 C 28,8 C 0,0 km/h (0 Bft)
02/06/2012 19:10 28,8 C 56 % 1009,1 hPa 0,0 mm 0,0 km/h (0 Bft) SO 225 0 min 0 W/m 19,1 C 28,8 C 0,0 km/h (0 Bft)
02/06/2012 19:20 28,9 C 56 % 1009,1 hPa 0,0 mm 0,0 km/h (0 Bft) SO 225 0 min 0 W/m 19,2 C 28,9 C 0,0 km/h (0 Bft)
02/06/2012 19:30 28,8 C 58 % 1009,2 hPa 0,0 mm 0,0 km/h (0 Bft) SO 225 0 min 0 W/m 19,7 C 28,8 C 0,0 km/h (0 Bft)
02/06/2012 19:40 28,6 C 58 % 1009,4 hPa 0,0 mm 0,0 km/h (0 Bft) SO 225 0 min 0 W/m 19,5 C 28,6 C 0,0 km/h (0 Bft)
02/06/2012 19:50 28,3 C 60 % 1009,4 hPa 0,0 mm 0,0 km/h (0 Bft) SO 225 0 min 0 W/m 19,8 C 28,3 C 0,0 km/h (0 Bft)
02/06/2012 20:00 27,8 C 61 % 1009,4 hPa 0,0 mm 0,0 km/h (0 Bft) N-NO 337 0 min 0 W/m 19,6 C 27,8 C 0,0 km/h (0 Bft)
02/06/2012 20:10 27,3 C 63 % 1009,3 hPa 0,0 mm 0,0 km/h (0 Bft) SO 225 0 min 0 W/m 19,6 C 27,3 C 0,0 km/h (0 Bft)
02/06/2012 20:20 26,8 C 64 % 1009,1 hPa 0,0 mm 0,4 km/h (0 Bft) S-SO 202 0 min 0 W/m 19,4 C 26,8 C 0,4 km/h (0 Bft)
02/06/2012 20:30 26,4 C 65 % 1008,7 hPa 0,0 mm 2,5 km/h (1 Bft) E-SE 112 0 min 0 W/m 19,3 C 26,4 C 3,6 km/h (1 Bft)
02/06/2012 20:40 25,8 C 67 % 1008,5 hPa 0,0 mm 2,9 km/h (1 Bft) SE 135 0 min 0 W/m 19,2 C 25,8 C 2,9 km/h (1 Bft)
02/06/2012 20:50 25,5 C 68 % 1008,8 hPa 0,0 mm 0,0 km/h (0 Bft) SE 135 0 min 0 W/m 19,1 C 25,5 C 1,4 km/h (1 Bft)
02/06/2012 21:00 25,1 C 71 % 1009,0 hPa 0,0 mm 3,2 km/h (1 Bft) NO 315 0 min 0 W/m 19,5 C 25,1 C 7,9 km/h (2 Bft)
02/06/2012 21:10 24,6 C 71 % 1008,5 hPa 0,0 mm 0,0 km/h (0 Bft) N-NO 337 0 min 0 W/m 19,0 C 24,6 C 0,0 km/h (0 Bft)
02/06/2012 21:20 24,4 C 72 % 1008,6 hPa 0,0 mm 0,0 km/h (0 Bft) N-NO 337 0 min 0 W/m 19,0 C 24,4 C 0,0 km/h (0 Bft)
02/06/2012 21:30 24,0 C 74 % 1008,6 hPa 0,0 mm 0,0 km/h (0 Bft) N-NO 337 0 min 0 W/m 19,1 C 24,0 C 0,0 km/h (0 Bft)
02/06/2012 21:40 23,8 C 74 % 1008,1 hPa 0,0 mm 0,0 km/h (0 Bft) N 360 0 min 0 W/m 18,9 C 23,8 C 3,2 km/h (1 Bft)
02/06/2012 21:50 23,8 C 73 % 1007,9 hPa 0,0 mm 0,0 km/h (0 Bft) E 90 0 min 0 W/m 18,7 C 23,8 C 3,2 km/h (1 Bft)
02/06/2012 22:00 23,8 C 72 % 1007,7 hPa 0,0 mm 0,7 km/h (0 Bft) E-SE 112 0 min 0 W/m 18,4 C 23,8 C 0,7 km/h (0 Bft)
02/06/2012 22:10 23,7 C 73 % 1008,0 hPa 0,0 mm 0,0 km/h (0 Bft) E-SE 112 0 min 0 W/m 18,6 C 23,7 C 4,3 km/h (1 Bft)
02/06/2012 22:20 23,6 C 75 % 1008,5 hPa 0,0 mm 0,0 km/h (0 Bft) SE 135 0 min 0 W/m 18,9 C 23,6 C 0,0 km/h (0 Bft)
02/06/2012 22:30 23,2 C 75 % 1008,6 hPa 0,0 mm 0,0 km/h (0 Bft) SE 135 0 min 0 W/m 18,5 C 23,2 C 0,0 km/h (0 Bft)
02/06/2012 22:40 23,0 C 75 % 1008,4 hPa 0,0 mm 0,0 km/h (0 Bft) SE 135 0 min 0 W/m 18,3 C 23,0 C 0,0 km/h (0 Bft)
02/06/2012 22:50 22,8 C 76 % 1008,8 hPa 0,1 mm 10,1 km/h (2 Bft) SE 135 0 min 0 W/m 18,3 C 22,8 C 14,0 km/h (3 Bft)
02/06/2012 23:00 22,4 C 71 % 1008,7 hPa 0,0 mm 13,0 km/h (3 Bft) S-SE 157 0 min 0 W/m 16,9 C 22,4 C 13,0 km/h (3 Bft)
02/06/2012 23:10 21,6 C 74 % 1009,4 hPa 0,3 mm 16,6 km/h (3 Bft) O-SO 247 0 min 0 W/m 16,8 C 21,6 C 27,4 km/h (5 Bft)
02/06/2012 23:20 19,8 C 83 % 1008,8 hPa 1,2 mm 5,4 km/h (2 Bft) S-SO 202 0 min 0 W/m 16,8 C 19,8 C 10,4 km/h (2 Bft)
02/06/2012 23:30 19,1 C 86 % 1008,9 hPa 0,5 mm 6,5 km/h (2 Bft) S 180 0 min 0 W/m 16,7 C 19,1 C 11,2 km/h (2 Bft)
_ Min-Heure 06:40 12:50 22:00 - 22:40 - - - - 06:40 06:40 22:40
Minimum _ 13,2 C 53 % 1007,7 hPa - 0,0 km/h (0 Bft) - - - - 11,3 C 13,2 C 0,0 km/h (0 Bft)
_ Max-Heure 18:00 08:00 00:30 23:20 23:10 - - 23:30 23:30 17:10 18:00 23:10
Maximum _ 29,8 C 90 % 1014,3 hPa 1,2 mm 16,6 km/h
O-SO (3 Bft)
- - 0 min 0 W/m 20,2 C 29,8 C 27,4 km/h
O-SO (5 Bft)
Moyenne _ 22,2 C 72 % 1010,9 hPa #2,2 mm 1,3 km/h (1 Bft) N-NE - #0 min. 0 W/m 16,6 C 22,2 C 2,6 km/h (1 Bft)
Saint Bonnet de Bellac- Haute Vienne - France